EDT,Max TemperatureF,Mean TemperatureF,Min TemperatureF,Max Dew PointF,MeanDew PointF,Min DewpointF,Max Humidity, Mean Humidity, Min Humidity, Max Sea Level PressureIn, Mean Sea Level PressureIn, Min Sea Level PressureIn, Max VisibilityMiles, Mean VisibilityMiles, Min VisibilityMiles, Max Wind SpeedMPH, Mean Wind SpeedMPH, Max Gust SpeedMPH,PrecipitationIn, CloudCover, Events, WindDirDegrees
2013-5-1,66,54,41,43,36,29,80,52,28,30.49,30.42,30.34,10,10,10,17,8,26,0.00,0,,73
2013-5-2,71,56,42,44,40,34,89,56,27,30.48,30.42,30.35,10,10,10,9,5,17,0.00,0,,101
2013-5-3,62,54,46,42,39,34,80,58,36,30.45,30.40,30.37,10,10,10,16,7,22,0.00,1,,91
2013-5-4,66,54,43,44,40,35,89,63,32,30.38,30.30,30.23,10,10,10,16,6,23,0.00,1,,73
2013-5-5,62,52,41,41,39,37,87,65,43,30.30,30.27,30.22,10,10,10,14,8,20,0.00,3,,81
2013-5-6,69,56,44,52,47,40,90,77,55,30.26,30.21,30.14,10,10,10,15,8,24,0.00,6,,78
2013-5-7,69,60,51,59,54,48,100,86,64,30.17,30.12,30.06,10,7,1,17,9,22,0.05,7,Rain,76
2013-5-8,73,66,59,63,58,49,94,83,44,30.07,30.00,29.94,10,9,2,13,8,,0.20,7,Rain-Thunderstorm,81
2013-5-9,70,62,55,55,54,52,100,80,53,29.99,29.96,29.92,10,8,2,13,3,,0.49,7,Rain,313
2013-5-10,81,68,55,61,55,50,94,65,35,30.02,29.97,29.91,10,9,5,13,4,31,0.19,1,Rain-Thunderstorm,250
2013-5-11,75,68,62,64,61,59,94,84,64,29.93,29.81,29.73,10,9,2,14,4,22,0.46,7,Rain,236
2013-5-12,64,58,48,58,39,22,87,51,26,29.99,29.81,29.73,10,10,10,22,10,33,0.02,3,Rain,285
2013-5-13,55,48,42,33,28,21,70,47,29,30.15,30.07,30.00,10,10,9,17,6,30,0.00,2,,297
2013-5-14,61,49,37,31,29,25,73,45,26,30.19,30.13,30.07,10,10,10,13,6,28,0.00,0,,295
2013-5-15,73,62,52,57,48,32,81,61,45,30.09,29.89,29.73,10,10,10,10,4,18,0.00,4,Rain,199
2013-5-16,81,69,57,62,57,51,90,70,45,29.87,29.80,29.74,10,9,2,10,3,23,0.05,2,Rain,274
2013-5-17,73,63,53,50,42,37,64,44,26,30.21,30.08,29.90,10,10,10,10,6,17,0.00,0,,349
2013-5-18,68,62,57,55,51,42,94,73,52,30.31,30.28,30.21,10,9,3,12,4,16,0.11,8,Rain,129
2013-5-19,62,58,55,61,58,55,100,95,88,30.29,30.23,30.18,10,6,1,10,7,,0.16,8,Rain,109
2013-5-20,80,69,59,65,62,58,100,83,60,30.18,30.08,30.00,10,5,0,9,3,,0.00,6,Fog,234
2013-5-21,82,72,64,67,66,63,94,77,58,30.00,29.95,29.88,10,9,4,12,5,17,0.00,2,,221
2013-5-22,86,78,69,70,68,66,90,76,51,29.93,29.89,29.84,10,7,2,14,8,22,0.00,3,,217
2013-5-23,82,75,66,69,66,63,90,79,54,29.91,29.85,29.78,10,9,2,20,8,28,0.12,7,Rain-Thunderstorm,208
2013-5-24,66,56,46,63,51,37,94,83,59,30.03,29.85,29.73,10,9,2,20,9,31,0.39,8,Rain,310
2013-5-25,62,54,46,40,34,29,79,50,31,30.08,30.02,29.99,10,10,10,20,15,33,0.00,5,,315
2013-5-26,70,58,48,36,34,31,56,41,24,30.23,30.11,30.06,10,10,10,20,11,29,0.00,0,,304
2013-5-27,73,58,43,44,38,33,86,47,28,30.28,30.23,30.17,10,10,10,14,3,23,0.00,0,,257
2013-5-28,64,58,53,63,57,43,97,85,55,30.23,30.18,30.13,10,6,2,8,2,,0.27,6,Rain,115
2013-5-29,89,74,59,66,62,57,100,77,42,30.13,30.09,30.04,10,5,0,15,4,21,0.00,2,Fog-Rain,230
2013-5-30,91,81,71,66,63,58,84,56,34,30.17,30.13,30.09,10,10,7,13,6,18,0.00,0,,252
2013-5-31,91,80,68,67,63,56,90,56,33,30.15,30.09,30.02,10,9,5,12,5,22,0.00,0,,225